map of LAD home
LAD - Airport
Location
City:  Luanda, Luanda, Angola
Name:Aeroporto 4 de Fevereiro
ICAO:FNLU
IATA:LAD

Details
Type:Airport (Aerodrome, Airfield)
Use:Public/Civil, Military, International (customs port of entry)
Latitude:851'30"S (-8.858374)
Longitude:1313'52"E (13.231178)
Datum:other
Elevation:243 ft (74 m)
Variation:3.46W (WMM2015 magnetic declination)
0.17 annual change
Runways:2
Longest:12190 × 148 ft (3716 × 45 m), paved

Time
Time Zone:UTC+1
Local Time:

Weather
METAR:FNLU 201700Z 32006KT 9999 FEW020 FEW023CB BKN080 27/23 Q1008 NOSIG
TAF:FNLU 201100Z 2012/2118 27010KT 9999 SCT020 BKN100
TEMPO 2013/2017 7000 -DZRA FEW016 BKN020 FEW023CB
BECMG 2020/2022 21008KT 9999 FEW020 BKN080
TEMPO 2106/2110 24008KT 6000 DZRA SCT016 BKN018

Related Locations
Nearby:
Farthest:PLPA: 12062 mi / 19412 km
Palmyra Island Atoll [Palmyra Airport (Cooper)], UM

Find:

   beyond  
but within

Other Information
Maps:
NOTAMs:
Links:
Sources:

  
flag of Angola   

Sectional Chart

Flight Planning
at skyvector.com

Satellite Image

Google Maps Satellite view

 

Copyright © 2004-2018 Karl L. Swartz. All rights reserved.
The Great Circle Mapper name and logo are trademarks of the Great Circle Mapper.
All other trademarks mentioned herein belong to their respective owners.
Please see credits for attibutions and further copyright information.

  Follow gcmap on Facebook Follow gcmap on Twitter Follow gcmap on Google+ GCmap on LinkedIn

hCard Microformat

Geo Microformat